When you browse on this site, cookies collect data to enhance your experience and personalize the content and advertising you see.
Visit our Privacy Policy to learn more. By continuing to use the site, you agree to this use of cookies and data.
  • In Lithuania
  • List of Countries
  • For 7 days
  • Water Temperature
  • Satellite Maps
  • Weather Map
  • Weather Widgets
  • user-avatar
    Login

    Hourly Weather Puerto Ayacucho

    Today, 18 November, Sunday

    Time Temperature Precipitation Wind Pressure Humidity
    00:00 +26°C° 0.3 mm 1 mps 751 mmHg 92%
    01:00 +26°C° 0.3 mm 1 mps 751 mmHg 92%
    02:00 +26°C° 0.2 mm 1 mps 751 mmHg 92%
    03:00 +26°C° 0.2 mm 1 mps 751 mmHg 92%
    04:00 +26°C° 0.2 mm 1 mps 750 mmHg 92%
    05:00 +26°C° 0.1 mm 1 mps 751 mmHg 90%
    06:00 +27°C° 0.1 mm 1 mps 751 mmHg 89%
    07:00 +27°C° 0.1 mm 1 mps 751 mmHg 87%
    08:00 +29°C° 0 mm 1 mps 751 mmHg 80%
    09:00 +31°C° 0 mm 1 mps 751 mmHg 73%
    10:00 +34°C° 0 mm 2 mps 751 mmHg 65%
    11:00 +34°C° 0.2 mm 2 mps 751 mmHg 66%
    12:00 +34°C° 0.2 mm 2 mps 750 mmHg 67%
    13:00 +34°C° 0.2 mm 2 mps 749 mmHg 68%
    14:00 +34°C° 1.4 mm 2 mps 749 mmHg 72%
    15:00 +32°C° 1.4 mm 1 mps 749 mmHg 76%
    16:00 +31°C° 1.4 mm 1 mps 748 mmHg 80%
    17:00 +30°C° 2 mm 1 mps 749 mmHg 83%
    18:00 +29°C° 2 mm 1 mps 750 mmHg 86%
    19:00 +28°C° 2 mm 1 mps 750 mmHg 89%
    20:00 +28°C° 0.2 mm 1 mps 751 mmHg 90%
    21:00 +28°C° 0.2 mm 1 mps 751 mmHg 90%
    22:00 +28°C° 0.2 mm 1 mps 751 mmHg 91%
    23:00 +27°C° 0.3 mm 1 mps 751 mmHg 91%

    Tomorrow, 19 November, Monday

    Time Temperature Precipitation Wind Pressure Humidity
    00:00 +27°C° 0.3 mm 1 mps 751 mmHg 91%
    01:00 +27°C° 0.3 mm 1 mps 750 mmHg 91%
    02:00 +27°C° 0.2 mm 1 mps 750 mmHg 91%
    03:00 +27°C° 0.2 mm 1 mps 750 mmHg 91%
    04:00 +27°C° 0.2 mm 1 mps 750 mmHg 91%
    05:00 +27°C° 0 mm 1 mps 750 mmHg 90%
    06:00 +28°C° 0 mm 1 mps 751 mmHg 88%
    07:00 +28°C° 0 mm 1 mps 751 mmHg 86%
    08:00 +29°C° 0.1 mm 2 mps 751 mmHg 82%
    09:00 +30°C° 0.1 mm 2 mps 751 mmHg 77%
    10:00 +32°C° 0.1 mm 2 mps 751 mmHg 73%
    11:00 +32°C° 0.3 mm 2 mps 750 mmHg 71%
    12:00 +34°C° 0.3 mm 2 mps 750 mmHg 70%
    13:00 +34°C° 0.3 mm 2 mps 749 mmHg 68%
    14:00 +34°C° 1.5 mm 2 mps 748 mmHg 71%
    15:00 +32°C° 1.5 mm 1 mps 748 mmHg 74%
    16:00 +32°C° 1.5 mm 1 mps 748 mmHg 78%
    17:00 +31°C° 3 mm 1 mps 748 mmHg 81%
    18:00 +30°C° 3 mm 1 mps 749 mmHg 85%
    19:00 +29°C° 3 mm 1 mps 750 mmHg 89%
    20:00 +28°C° 2.6 mm 1 mps 750 mmHg 90%
    21:00 +28°C° 2.6 mm 1 mps 751 mmHg 91%
    22:00 +28°C° 2.6 mm 1 mps 751 mmHg 92%
    23:00 +28°C° 1.3 mm 1 mps 751 mmHg 93%

    Day after tomorrow, 20 November, Tuesday

    Time Temperature Precipitation Wind Pressure Humidity
    00:00 +27°C° 1.3 mm 1 mps 750 mmHg 93%
    01:00 +27°C° 1.3 mm 1 mps 750 mmHg 93%
    02:00 +27°C° 0.2 mm 1 mps 750 mmHg 93%
    03:00 +27°C° 0.2 mm 1 mps 750 mmHg 93%
    04:00 +27°C° 0.2 mm 1 mps 750 mmHg 93%
    05:00 +27°C° 0 mm 1 mps 750 mmHg 91%
    06:00 +28°C° 0 mm 1 mps 751 mmHg 89%
    07:00 +28°C° 0 mm 1 mps 751 mmHg 87%
    08:00 +30°C° 0 mm 1 mps 751 mmHg 80%
    09:00 +31°C° 0 mm 2 mps 751 mmHg 74%
    10:00 +34°C° 0 mm 2 mps 751 mmHg 68%
    11:00 +34°C° 0.6 mm 2 mps 751 mmHg 67%
    12:00 +35°C° 0.6 mm 2 mps 750 mmHg 66%
    13:00 +34°C° 0.6 mm 1 mps 749 mmHg 65%
    14:00 +34°C° 0.5 mm 1 mps 748 mmHg 68%
    15:00 +33°C° 0.5 mm 1 mps 748 mmHg 71%
    16:00 +33°C° 0.5 mm 1 mps 748 mmHg 74%
    17:00 +31°C° 1.2 mm 1 mps 749 mmHg 78%
    18:00 +30°C° 1.2 mm 1 mps 749 mmHg 81%
    19:00 +29°C° 1.2 mm 2 mps 750 mmHg 85%
    20:00 +28°C° 0.8 mm 2 mps 750 mmHg 86%
    21:00 +28°C° 0.8 mm 2 mps 751 mmHg 87%
    22:00 +28°C° 0.8 mm 1 mps 751 mmHg 89%
    23:00 +28°C° 0.7 mm 1 mps 751 mmHg 89%

    21 November, Wednesday

    Time Temperature Precipitation Wind Pressure Humidity
    00:00 +28°C° 0.7 mm 1 mps 750 mmHg 89%
    01:00 +27°C° 0.7 mm 1 mps 750 mmHg 89%
    02:00 +27°C° 0.7 mm 1 mps 750 mmHg 89%
    03:00 +27°C° 0.7 mm 1 mps 750 mmHg 89%
    04:00 +27°C° 0.7 mm 2 mps 750 mmHg 89%
    05:00 +27°C° 0 mm 2 mps 751 mmHg 87%
    06:00 +28°C° 0 mm 2 mps 751 mmHg 86%
    07:00 +28°C° 0 mm 2 mps 752 mmHg 84%
    08:00 +30°C° 0.1 mm 2 mps 752 mmHg 78%
    09:00 +31°C° 0.1 mm 2 mps 752 mmHg 72%
    10:00 +34°C° 0.1 mm 2 mps 752 mmHg 65%
    11:00 +34°C° 0.5 mm 2 mps 751 mmHg 66%
    12:00 +35°C° 0.5 mm 2 mps 750 mmHg 66%
    13:00 +34°C° 0.5 mm 1 mps 749 mmHg 66%
    14:00 +34°C° 0.9 mm 1 mps 749 mmHg 69%
    15:00 +33°C° 0.9 mm 1 mps 748 mmHg 71%
    16:00 +33°C° 0.9 mm 1 mps 748 mmHg 74%
    17:00 +31°C° 1.5 mm 1 mps 749 mmHg 78%
    18:00 +30°C° 1.5 mm 1 mps 749 mmHg 81%
    19:00 +29°C° 1.5 mm 1 mps 750 mmHg 85%
    20:00 +28°C° 0.4 mm 1 mps 750 mmHg 86%
    21:00 +28°C° 0.4 mm 1 mps 751 mmHg 87%
    22:00 +28°C° 0.4 mm 1 mps 751 mmHg 87%
    23:00 +27°C° 1.3 mm 1 mps 751 mmHg 88%

    22 November, Thursday

    Time Temperature Precipitation Wind Pressure Humidity
    00:00 +27°C° 1.3 mm 1 mps 750 mmHg 89%
    01:00 +27°C° 1.3 mm 1 mps 750 mmHg 89%
    02:00 +27°C° 0.6 mm 1 mps 750 mmHg 90%
    03:00 +27°C° 0.6 mm 1 mps 750 mmHg 90%
    04:00 +26°C° 0.6 mm 1 mps 750 mmHg 90%
    05:00 +27°C° 0 mm 1 mps 750 mmHg 88%
    06:00 +28°C° 0 mm 1 mps 751 mmHg 86%
    07:00 +28°C° 0 mm 1 mps 751 mmHg 84%
    08:00 +30°C° 0 mm 1 mps 751 mmHg 78%
    09:00 +31°C° 0 mm 1 mps 751 mmHg 72%
    10:00 +33°C° 0 mm 1 mps 751 mmHg 65%
    11:00 +33°C° 0.3 mm 1 mps 750 mmHg 66%
    12:00 +33°C° 0.3 mm 1 mps 749 mmHg 67%
    13:00 +33°C° 0.3 mm 1 mps 748 mmHg 68%
    14:00 +33°C° 1.2 mm 1 mps 748 mmHg 70%
    15:00 +33°C° 1.2 mm 1 mps 748 mmHg 72%
    16:00 +32°C° 1.2 mm 1 mps 748 mmHg 74%
    17:00 +31°C° 1.6 mm 1 mps 748 mmHg 78%
    18:00 +30°C° 1.6 mm 1 mps 749 mmHg 81%
    19:00 +29°C° 1.6 mm 1 mps 750 mmHg 85%
    20:00 +28°C° 1.3 mm 1 mps 750 mmHg 86%
    21:00 +28°C° 1.3 mm 1 mps 751 mmHg 88%
    22:00 +28°C° 1.3 mm 1 mps 751 mmHg 89%
    23:00 +27°C° 0.9 mm 1 mps 750 mmHg 90%

    23 November, Friday

    Time Temperature Precipitation Wind Pressure Humidity
    00:00 +27°C° 0.9 mm 1 mps 750 mmHg 91%
    01:00 +27°C° 0.9 mm 1 mps 750 mmHg 92%
    02:00 +27°C° 0.6 mm 1 mps 750 mmHg 92%
    03:00 +26°C° 0.6 mm 1 mps 750 mmHg 92%
    04:00 +26°C° 0.6 mm 1 mps 750 mmHg 92%
    05:00 +27°C° 0 mm 1 mps 750 mmHg 90%
    06:00 +25°C° 0 mm 0 mps 751 mmHg 87%
    07:00 +26°C° 0 mm 0 mps 751 mmHg 85%
    08:00 +28°C° 0 mm 0 mps 751 mmHg 79%
    09:00 +31°C° 0 mm 1 mps 751 mmHg 73%
    10:00 +33°C° 0 mm 1 mps 751 mmHg 66%
    11:00 +33°C° 0.3 mm 1 mps 750 mmHg 67%
    12:00 +33°C° 0.3 mm 1 mps 749 mmHg 68%
    13:00 +33°C° 0.3 mm 1 mps 748 mmHg 69%
    14:00 +33°C° 0.6 mm 1 mps 748 mmHg 71%
    15:00 +32°C° 0.6 mm 1 mps 748 mmHg 73%
    16:00 +32°C° 0.6 mm 1 mps 747 mmHg 75%
    17:00 +31°C° 0.3 mm 1 mps 748 mmHg 79%
    18:00 +29°C° 0.3 mm 1 mps 748 mmHg 82%
    19:00 +28°C° 0.3 mm 2 mps 749 mmHg 86%
    20:00 +28°C° 0 mm 2 mps 749 mmHg 86%
    21:00 +28°C° 0 mm 1 mps 749 mmHg 86%
    22:00 +27°C° 0 mm 1 mps 750 mmHg 86%
    23:00 +27°C° 0 mm 1 mps 749 mmHg 85%
    Show more